Погода в Белом Яре

Россия / Томская область     58°26′33″N   85°02′50″E
темп.,
°C
ветер,
м/с
пор.,
м/с
влажн.,
%
обл.,
%
осадки,
мм/ч
давл.,
гПа
погр.,
м
5 марта, пт
пт501:00−5ююз51394100 0.4 1007855
04:00−3ююз61393100 0.4 1005959
07:00−3ююз61491100 0.7 1005827
10:00−5ююз61390100 0.2 1005747
13:00−4ююз61291100 0.4 1004876
16:00−4ююз61193100 0.6 1003914
19:00−4ююз41289100 0.9 1004851
22:00−4юз8148898 0.9 10051015
6 марта, сб
сб601:00−7юз5129099 0.9 1007837
04:00−6ююз41194100 0.3 1007746
07:00−6ююз4119497 0.4 1007663
10:00−4ююз51194100 0.5 1005800
13:00−3ююз61195100 1.7 1003989
16:00−3ююз61191100 1.0 1002985
19:00−4ююз51193100 1.3 1002802
22:00−4ююз5129396 0.3 1000772
7 марта, вс
вс701:00−3ююз5129597 0.8 1000885
04:00−6зюз51388100 0.5 1000803
07:00−9зюз51291100 0.6 1004693
10:00−10зюз61290100 0.1 1006817
13:00−9зюз61089100 0.3 1010875
16:00−9зюз51089100 0.2 1012931
19:00−10зюз41191100 0.3 1015653
22:00−11юз3109388 0.0 1017333
8 марта, пн
пн801:00−15ююз369660 0.0 1019122
04:00−15ююв2597100 0.0 1018129
07:00−12юв41092100 0.0 1014340
10:00−8ююв71492100 0.6 1008760
13:00−4ю81590100 0.9 1003859
16:00−1ю81595100 1.4 999987
19:00−1ююз71592100 2.4 9951249
22:00−3зюз91494100 1.2 9971193
9 марта, вт
вт901:00−10зюз71587100 1.4 10031145
04:00−12зюз61489100 0.1 1008967
07:00−12зюз61390100 0.1 1012772
10:00−12зюз51190100 0.1 1015777
13:00−10юз5888100 0.2 1017988
16:00−9юз5987100 0.1 1018925
19:00−10ююз3894100 0.2 1018329
22:00−13ююз389573 0.0 1016187